Location: Melbourne
(37.8170°S, 144.9670°E)
Time: 14:23:18
(UTC+10:00)

Transit 2A - All Passes

Search period start: 02 October 2014 00:00
Search period end: 12 October 2014 01:00
Orbit: 600 x 963 km, 66.7° (Epoch: 01 October)

Date Brightness Start Highest point End Pass type
(mag) Time Alt. Az. Time Alt. Az. Time Alt. Az.
02 Oct - 04:52:11 10° S 04:56:42 25° SE 05:00:50 10° ENE visible
02 Oct - 06:35:09 10° SW 06:40:07 40° WNW 06:44:34 10° N daylight
02 Oct - 19:28:47 10° N 19:34:24 34° ENE 19:40:00 10° SE visible
02 Oct - 21:11:35 10° NW 21:17:35 42° SW 21:23:31 10° SSE visible
03 Oct - 04:19:05 10° S 04:22:53 19° SE 04:26:24 10° E visible
03 Oct - 06:01:24 10° SW 06:06:42 62° WNW 06:11:24 10° NNE daylight
03 Oct - 18:56:08 10° NNE 19:01:02 24° ENE 19:05:56 10° SE visible
03 Oct - 20:37:40 10° NW 20:43:56 57° WSW 20:50:08 10° SSE visible
03 Oct - 22:26:15 10° WSW 22:28:32 12° SW 22:30:49 10° SSW visible
04 Oct - 03:46:17 10° S 03:48:59 14° SE 03:51:34 10° ESE visible
04 Oct - 05:27:48 10° SSW 05:33:12 87° ESE 05:38:00 10° NNE visible
04 Oct - 18:23:58 10° NE 18:27:44 17° ENE 18:31:29 10° ESE daylight
04 Oct - 20:03:57 10° NNW 20:10:21 79° WSW 20:16:40 10° SSE visible
04 Oct - 21:50:51 10° W 21:54:36 16° SW 21:58:18 10° S visible
05 Oct - 05:54:18 10° SSW 05:59:38 59° ESE 06:04:23 10° NE visible
05 Oct - 07:39:24 10° WSW 07:42:07 15° WNW 07:44:43 10° NW daylight
05 Oct - 18:53:12 10° ENE 18:54:28 11° E 18:55:44 10° E daylight
05 Oct - 20:30:27 10° NNW 20:36:49 77° ENE 20:43:07 10° SSE visible
05 Oct - 22:16:02 10° W 22:20:44 21° SW 22:25:21 10° S visible
06 Oct - 05:20:54 10° SSW 05:26:00 40° SE 05:30:33 10° NE visible
06 Oct - 07:04:53 10° SW 07:08:51 22° WNW 07:12:31 10° NNW daylight
06 Oct - 19:57:09 10° N 20:03:19 55° ENE 20:09:27 10° SE visible
06 Oct - 21:41:33 10° WNW 21:46:56 28° SW 21:52:12 10° S visible
07 Oct - 04:47:37 10° S 04:52:16 28° SE 04:56:30 10° ENE visible
07 Oct - 06:30:50 10° SW 06:35:32 34° WNW 06:39:47 10° N daylight
07 Oct - 19:24:05 10° N 19:29:53 39° ENE 19:35:40 10° SE daylight
07 Oct - 21:07:20 10° WNW 21:13:12 37° SW 21:18:57 10° SSE visible
08 Oct - 04:14:28 10° S 04:18:28 21° SE 04:22:11 10° E visible
08 Oct - 05:57:01 10° SW 06:02:08 52° WNW 06:06:43 10° N visible
08 Oct - 18:51:18 10° NNE 18:56:30 27° ENE 19:01:41 10° SE daylight
08 Oct - 20:33:20 10° NW 20:39:31 51° WSW 20:45:36 10° SSE visible
08 Oct - 22:23:00 10° SW 22:24:14 11° SW 22:25:27 10° SSW visible
09 Oct - 03:41:33 10° S 03:44:36 15° SE 03:47:30 10° ESE visible
09 Oct - 05:23:21 10° SSW 05:28:40 81° WNW 05:33:24 10° NNE visible
09 Oct - 18:18:55 10° NNE 18:23:10 19° ENE 18:27:25 10° ESE daylight
09 Oct - 19:59:32 10° NW 20:05:54 70° WSW 20:12:10 10° SSE visible
09 Oct - 21:47:01 10° WSW 21:50:16 14° SW 21:53:28 10° S visible
10 Oct - 03:09:17 10° SSE 03:10:40 11° SE 03:12:01 10° SE visible
10 Oct - 04:49:49 10° SSW 04:55:08 68° ESE 04:59:51 10° NE visible
10 Oct - 06:35:39 10° W 06:37:28 12° W 06:39:14 10° WNW daylight
10 Oct - 17:47:20 10° NE 17:49:53 13° ENE 17:52:26 10° ESE daylight
10 Oct - 19:25:57 10° NNW 19:32:21 86° ENE 19:38:38 10° SSE daylight
10 Oct - 21:12:01 10° W 21:16:22 19° SW 21:20:38 10° S visible
11 Oct - 04:16:23 10° SSW 04:21:30 46° SE 04:26:06 10° NE visible
11 Oct - 06:00:43 10° WSW 06:04:13 19° WNW 06:07:30 10° NNW visible
11 Oct - 18:52:34 10° NNW 18:58:50 62° ENE 19:05:01 10° SE daylight
11 Oct - 20:37:25 10° WNW 20:42:33 25° SW 20:47:33 10° S visible
